Change the Weather History Date:

Friday, July 19, 2013

  Actual Average Record
Temperature  
Mean Temperature 68 °F -  
Max Temperature 77 °F 75 °F 86 °F (2002)
Min Temperature 59 °F 53 °F 33 °F (2007)
Cooling Degree Days 4    
Growing Degree Days 18 (Base 50)    
Moisture  
Dew Point 61 °F    
Average Humidity 82    
Maximum Humidity 100    
Minimum Humidity 47    
Precipitation  
Precipitation 0.00 in - - ()
Sea Level Pressure  
Sea Level Pressure 29.75 in    
Wind  
Wind Speed 4 mph (WNW)    
Max Wind Speed 12 mph    
Max Gust Speed 21 mph    
Visibility 10 miles    
Events Rain    
Averages and records for this station are not official NWS values.
T = Trace of Precipitation, MM = Missing Value Source: NWS Daily Summary

Daily Weather History Graph

Daily Weather History Graph

Search for Another Location

Airport or City:

Trip Planner

Search our weather history database for the weather conditions in past years. The results will help you decide how hot, cold, wet, or windy it might be!

Date:

Astronomy

Jul. 19, 2013 Rise Set
Actual Time 5:29 AM CDT 9:02 PM CDT
Civil Twilight 4:50 AM CDT 9:40 PM CDT
Nautical Twilight 3:58 AM CDT 10:32 PM CDT
Astronomical Twilight 2:47 AM CDT 11:42 PM CDT
Moon 6:04 PM CDT (7/19) 2:12 AM CDT (7/19)
Length of Visible Light 16h 50m
Length of Day
15h 32m
Waxing Gibbous, 87% of the Moon is Illuminated
Jul 19
Waxing Gibbous
Jul 22
Full
Jul 29
Last Quarter
Aug 6
New
Aug 14
First Quarter

Hourly Weather History & Observations

Time (CDT) Temp. Dew Point Humidity Pressure Visibility Wind Dir Wind Speed Gust Speed Precip Events Conditions
12:14 AM 66.2 °F 66.2 °F 100% 29.66 in 10.0 mi South 3.5 mph - N/A   Scattered Clouds
12:33 AM 66.2 °F 66.2 °F 100% 29.65 in 7.0 mi South 3.5 mph - N/A   Mostly Cloudy
12:54 AM 66.2 °F 66.2 °F 100% 29.63 in 7.0 mi Calm Calm - N/A   Scattered Clouds
1:13 AM 66.2 °F 66.2 °F 100% 29.63 in 10.0 mi SSW 4.6 mph - N/A   Clear
1:33 AM 66.2 °F 66.2 °F 100% 29.63 in 10.0 mi SSW 5.8 mph - N/A   Clear
1:54 AM 66.2 °F 66.2 °F 100% 29.64 in 10.0 mi SW 3.5 mph - N/A   Clear
2:14 AM 66.2 °F 64.4 °F 94% 29.63 in 10.0 mi South 4.6 mph - N/A   Clear
2:33 AM 64.4 °F 64.4 °F 100% 29.63 in 10.0 mi SSW 3.5 mph - N/A   Clear
2:53 AM 64.4 °F 64.4 °F 100% 29.62 in 10.0 mi SSW 3.5 mph - N/A   Scattered Clouds
3:14 AM 64.4 °F 64.4 °F 100% 29.62 in 10.0 mi South 4.6 mph - N/A   Scattered Clouds
3:33 AM 64.4 °F 64.4 °F 100% 29.61 in 10.0 mi Calm Calm - N/A   Scattered Clouds
3:53 AM 66.2 °F 64.4 °F 94% 29.62 in 10.0 mi Calm Calm - N/A   Scattered Clouds
4:13 AM 66.2 °F 66.2 °F 100% 29.63 in 10.0 mi West 4.6 mph - N/A   Mostly Cloudy
4:34 AM 66.2 °F 66.2 °F 100% 29.64 in 10.0 mi NNW 4.6 mph - N/A   Mostly Cloudy
4:53 AM 64.4 °F 64.4 °F 100% 29.65 in 10.0 mi NNW 5.8 mph - N/A   Clear
5:14 AM 64.4 °F 64.4 °F 100% 29.66 in 10.0 mi Calm Calm - N/A   Clear
5:33 AM 62.6 °F 62.6 °F 100% 29.67 in 10.0 mi Calm Calm - N/A   Clear
5:53 AM 62.6 °F 62.6 °F 100% 29.67 in 10.0 mi Calm Calm - N/A   Clear
6:13 AM 62.6 °F 62.6 °F 100% 29.69 in 10.0 mi Calm Calm - N/A   Scattered Clouds
6:33 AM 62.6 °F 62.6 °F 100% 29.69 in 10.0 mi Calm Calm - N/A   Scattered Clouds
6:53 AM 62.6 °F 62.6 °F 100% 29.71 in 10.0 mi NW 3.5 mph - N/A   Clear
7:13 AM 64.4 °F 64.4 °F 100% 29.71 in 10.0 mi NW 3.5 mph - N/A   Clear
7:33 AM 64.4 °F 64.4 °F 100% 29.73 in 10.0 mi NW 6.9 mph - N/A   Mostly Cloudy
7:53 AM 64.4 °F 64.4 °F 100% 29.74 in 10.0 mi NW 3.5 mph - N/A   Overcast
8:13 AM 64.4 °F 64.4 °F 100% 29.74 in 10.0 mi NW 6.9 mph - N/A   Mostly Cloudy
8:33 AM 64.4 °F 64.4 °F 100% 29.75 in 10.0 mi NW 6.9 mph - N/A   Clear
8:53 AM 66.2 °F 66.2 °F 100% 29.76 in 10.0 mi NNW 9.2 mph 17.3 mph N/A   Scattered Clouds
9:13 AM 66.2 °F 64.4 °F 94% 29.77 in 10.0 mi NW 4.6 mph - N/A   Mostly Cloudy
9:33 AM 68.0 °F 66.2 °F 94% 29.77 in 10.0 mi NW 5.8 mph - N/A   Scattered Clouds
9:53 AM 66.2 °F 66.2 °F 100% 29.77 in 10.0 mi West 5.8 mph - N/A   Scattered Clouds
10:13 AM 69.8 °F 69.8 °F 100% 29.77 in 10.0 mi West 3.5 mph - N/A   Scattered Clouds
10:33 AM 71.6 °F 71.6 °F 100% 29.78 in 10.0 mi West 8.1 mph - N/A   Scattered Clouds
10:53 AM 71.6 °F 71.6 °F 100% 29.78 in 10.0 mi NNW 5.8 mph - N/A   Scattered Clouds
11:13 AM 71.6 °F 71.6 °F 100% 29.78 in 10.0 mi West 5.8 mph - N/A   Scattered Clouds
11:34 AM 71.6 °F 71.6 °F 100% 29.79 in 10.0 mi NW 5.8 mph - N/A   Clear
11:53 AM 71.6 °F 71.6 °F 100% 29.80 in 10.0 mi West 5.8 mph - N/A   Clear
12:13 PM 73.4 °F 71.6 °F 94% 29.80 in 10.0 mi NW 8.1 mph - N/A   Clear
12:33 PM 71.6 °F 71.6 °F 100% 29.80 in 10.0 mi NNW 11.5 mph 18.4 mph N/A   Clear
12:53 PM 71.6 °F 69.8 °F 94% 29.80 in 10.0 mi NNW 10.4 mph 16.1 mph N/A   Clear
1:13 PM 69.8 °F 68.0 °F 94% 29.80 in 10.0 mi NW 8.1 mph 18.4 mph N/A   Scattered Clouds
1:33 PM 73.4 °F 69.8 °F 88% 29.79 in 10.0 mi NW 8.1 mph - N/A   Scattered Clouds
1:54 PM 73.4 °F 69.8 °F 88% 29.80 in 10.0 mi West 5.8 mph - N/A   Scattered Clouds
2:13 PM 73.4 °F 68.0 °F 83% 29.79 in 10.0 mi WSW 9.2 mph - N/A   Scattered Clouds
2:33 PM 73.4 °F 64.4 °F 73% 29.79 in 10.0 mi WNW 6.9 mph - N/A   Scattered Clouds
2:53 PM 73.4 °F 64.4 °F 73% 29.78 in 10.0 mi WNW 9.2 mph 18.4 mph N/A   Scattered Clouds
3:13 PM 75.2 °F 62.6 °F 65% 29.79 in 10.0 mi WNW 5.8 mph - N/A   Scattered Clouds
3:33 PM 77.0 °F 55.4 °F 47% 29.78 in 10.0 mi West 6.9 mph - N/A   Scattered Clouds
3:54 PM 73.4 °F 53.6 °F 50% 29.79 in 10.0 mi West 3.5 mph - N/A   Mostly Cloudy
4:13 PM 71.6 °F 53.6 °F 53% 29.79 in 10.0 mi WSW 3.5 mph - N/A   Overcast
4:34 PM 69.8 °F 53.6 °F 56% 29.79 in 10.0 mi WSW 3.5 mph - N/A   Overcast
4:53 PM 69.8 °F 53.6 °F 56% 29.79 in 10.0 mi SW 3.5 mph - N/A Rain Light Rain
5:14 PM 68.0 °F 53.6 °F 60% 29.79 in 10.0 mi SW 5.8 mph - N/A Rain Light Rain
5:33 PM 69.8 °F 57.2 °F 64% 29.79 in 10.0 mi WSW 5.8 mph - N/A   Mostly Cloudy
5:53 PM 73.4 °F 57.2 °F 57% 29.78 in 10.0 mi WNW 5.8 mph - N/A   Scattered Clouds
6:13 PM 73.4 °F 60.8 °F 65% 29.78 in 10.0 mi West 3.5 mph - N/A   Scattered Clouds
6:34 PM 73.4 °F 59.0 °F 61% 29.77 in 10.0 mi West 4.6 mph - N/A   Clear
6:53 PM 73.4 °F 59.0 °F 61% 29.77 in 10.0 mi Calm Calm - N/A   Clear
7:13 PM 71.6 °F 57.2 °F 60% 29.77 in 10.0 mi Calm Calm - N/A   Mostly Cloudy
7:33 PM 73.4 °F 59.0 °F 61% 29.78 in 10.0 mi Calm Calm - N/A   Mostly Cloudy
7:53 PM 71.6 °F 57.2 °F 60% 29.78 in 10.0 mi West 3.5 mph - N/A   Scattered Clouds
8:13 PM 69.8 °F 55.4 °F 60% 29.78 in 10.0 mi Calm Calm - N/A   Scattered Clouds
8:33 PM 68.0 °F 55.4 °F 64% 29.79 in 10.0 mi NW 3.5 mph - N/A   Overcast
8:54 PM 66.2 °F 53.6 °F 64% 29.80 in 10.0 mi Calm Calm - N/A   Scattered Clouds
9:13 PM 64.4 °F 53.6 °F 68% 29.82 in 10.0 mi NNW 8.1 mph - N/A   Scattered Clouds
9:33 PM 66.2 °F 51.8 °F 60% 29.83 in 10.0 mi NW 3.5 mph - N/A   Mostly Cloudy
9:53 PM 64.4 °F 50.0 °F 59% 29.84 in 10.0 mi North 9.2 mph 20.7 mph N/A   Scattered Clouds
10:13 PM 64.4 °F 46.4 °F 52% 29.85 in 10.0 mi North 8.1 mph - N/A   Scattered Clouds
10:33 PM 62.6 °F 46.4 °F 55% 29.86 in 10.0 mi NNW 6.9 mph - N/A   Mostly Cloudy
10:53 PM 62.6 °F 44.6 °F 52% 29.86 in 10.0 mi North 6.9 mph - N/A   Scattered Clouds
11:13 PM 60.8 °F 42.8 °F 52% 29.87 in 10.0 mi NNW 8.1 mph - N/A   Clear
11:33 PM 60.8 °F 42.8 °F 52% 29.87 in 10.0 mi NNW 5.8 mph - N/A   Clear
11:53 PM 59.0 °F 42.8 °F 55% 29.88 in 10.0 mi Calm Calm - N/A   Clear